Hourly Data Report for June 14, 2021

ATIKOKAN (AUT)
ONTARIO
Current Station Operator: ECCC - MSC

48°45'40.000" N
91°37'41.000" W
389.30 m
6020LPQ
71747
WCH

Download Data

Hourly Data (June 2021)
Hourly Data Report for June 14, 2021
TIME
LST
Temp Definition
°C
Dew Point Definition
°C
Rel Hum Definition
%
Precip. Amount Definition
mm

Wind Dir Definition
10's deg

Wind Spd Definition
km/h
Visibility Definition
km
Stn Press Definition
kPa
Hmdx Definition


Wind Chill Definition


Weather Definition


00:00 9.4 9.1 98 0.0   0   96.92     LegendNANA
01:00 8.8 8.6 99 0.0 0 1   96.90     LegendNANA
02:00 8.2 8.0 99 0.0   0   96.92     LegendNANA
03:00 7.7 7.5 99 0.0 0 1   96.94     LegendNANA
04:00 10.4 10.3 99 0.0 25 3   96.96     LegendNANA
05:00 11.5 11.4 99 0.0 23 1   97.00     LegendNANA
06:00 12.7 12.6 99 0.0 28 2   97.03     LegendNANA
07:00 14.2 13.1 94 0.0 25 2   97.04     LegendNANA
08:00 16.2 13.1 82 0.0 32 5   97.07     LegendNANA
09:00 17.4 12.0 71 0.0 33 8   97.11     LegendNANA
10:00 16.1 11.7 75 0.0 3 8   97.20     LegendNANA
11:00 16.9 11.1 69 0.0 1 8   97.25     LegendNANA
12:00 17.8 10.4 62 0.0 1 7   97.29     LegendNANA
13:00 20.0 11.6 59 0.0 3 7   97.31     LegendNANA
14:00 17.9 10.8 63 0.0 34 9   97.39     LegendNANA
15:00 17.6 10.5 63 0.0 1 8   97.43     LegendNANA
16:00 17.7 10.6 63 0.0 1 8   97.45     LegendNANA
17:00 18.4 11.1 62 0.0 33 5   97.45     LegendNANA
18:00 18.8 11.0 61 0.0 35 6   97.45     LegendNANA
19:00 17.6 10.7 64 0.4 35 4   97.47     LegendNANA
20:00 14.9 11.3 79 0.0 32 4   97.50     LegendNANA
21:00 12.3 11.1 92 0.0 6 1   97.57     LegendNANA
22:00 11.4 10.9 97 0.0   0   97.58     LegendNANA
23:00 10.4 10.0 97 0.0   0   97.60     LegendNANA

Notes on Data Quality.

Legend

  • E = Estimated
  • M = Missing
  • NA = Not Available*
  • [empty] = Indicates an unobserved value
Date modified: